Regional Weather Roundup
Issued by NWS

Home | Current Version | Previous Version | Text Only | Print | Product List | Glossary On
Versions: 1 2 3 4 5 6 7 8 9 10 11 12 13 14 15 16 17 18 19 20 21 22 23 24 25 26 27 28 29 30 31 32 33 34 35 36 37 38 39 40 41 42 43 44 45 46 47 48 49 50
000
ASUS45 KTFX 210410
RWRMT
Montana Regional Weather Roundup
National Weather Service Great Falls MT
900 PM MST MON JAN 20 2020

NOTE: "FAIR" indicates few or no clouds below 12,000 feet with no
significant weather and/or obstructions to visibility.

MTZ001>007-043-210500-
West of the divide

CITY           SKY/WX    TMP DP  RH WIND       PRES   REMARKS
Kalispell      CLOUDY    24  22  91 N3        29.97F FOG
Missoula       CLOUDY    32  27  81 CALM      29.99F
Butte          MOCLDY    26  20  77 CALM      29.99F
Anaconda         N/A     39  16  38 SE9       29.96S
Deer Lodge       N/A     28  21  74 CALM      29.99F
Hamilton       CLOUDY    32  27  80 SE3       29.99F
Mullan Pass    MOCLDY    30  26  85 VRB6      29.91F WCI  24
Plains           N/A     29  24  81 CALM      29.98F
Ronan            N/A     28  28 100 CALM      29.96F FOG
Thompson Falls   N/A     31  27  85 E1        30.02
$$

MTZ008-052>055-210500-
Southwest Montana

CITY           SKY/WX    TMP DP  RH WIND       PRES   REMARKS
Bozeman        CLOUDY    29  23  78 SW6       30.00F WCI  23
Dillon         FAIR      29  20  69 S8        29.99F WCI  21
Ennis          CLOUDY    41  21  45 S15G25    30.04F
Three Forks      N/A     27  21  77 CALM      29.98F
Twin Bridges     N/A     28  17  63 CALM      29.99F
W Yellowstone  CLOUDY    16  12  86 CALM      30.10F
$$

MTZ009-010-012-014-046-048-049-054-210500-
East Slopes and Central Montana

CITY           SKY/WX    TMP DP  RH WIND       PRES   REMARKS
Cut Bank       FAIR      41  24  51 W15       29.85F
Great Falls    MOCLDY    40  16  37 SW16      29.88F
Helena         FAIR      29  20  69 CALM      29.98F
Malmstrom AFB  MOCLDY    36  19  50 S10       29.89F WCI  29
Augusta        MOCLDY    35  19  52 NW3       29.89F
Bowmans Corner FAIR      35  17  47 S14       29.89F WCI  26
Choteau          N/A     41  19  42 SW6       29.86F
Fairfield      FAIR      37  17  44 S12       29.88S WCI  29
Power          FAIR      39  15  37 SW13      29.87F WCI  31
Raynesford     CLOUDY    45  14  29 SW10      29.89F
Ulm            MOCLDY    37  19  48 W8        29.91F WCI  30
White Sulphur    N/A     37  16  41 S5        29.96S
$$

MTZ011-013-016-021-045-047-050-051-210500-
North Central Montana

CITY           SKY/WX    TMP DP  RH WIND       PRES   REMARKS
Havre          FAIR      14   6  70 CALM      29.88F
Lewistown      FAIR      36  20  52 W12       29.89F WCI  28
Chinook          N/A     12   9  85 CALM      29.91F
Denton         MOCLDY    37  24  61 S12       29.85F WCI  29
Fort Benton      N/A     27  19  74 NW5       29.88S
Geyser         MOCLDY    42  19  39 CALM      29.88F
Grass Range    MOCLDY    44  21  40 W5        29.85F
Judith Gap     MOCLDY    33  19  56 S8        29.92F WCI  26
Roy            MOCLDY    42  24  48 W15       29.85F
Stanford       CLOUDY    45  16  31 SW9       29.89F
$$

MTZ017>020-022>027-061-062-210500-
Northeast Montana

CITY           SKY/WX    TMP DP  RH WIND       PRES   REMARKS
Glasgow        FAIR      28  18  66 SE15      29.88F WCI  16
Circle           N/A     30  23  74 SW6       29.91  WCI  24
Culbertson       N/A     18  16  93 NE6       29.95F WCI   9
Glendive       FAIR      29  21  72 S8        29.97F WCI  21
Jordan           N/A     26  19  74 SE5       29.90F
Malta          CLEAR      9   5  85 NW5       29.88F
Poplar           N/A     23  16  74 N6        29.93F WCI  16
Sidney         FAIR      17  13  84 S6        29.98F WCI   9
Wolf Point     FAIR      17  11  77 NE5       29.93F
$$

MTZ028>42-056>058-210500-
Southcentral and southeast Montana

CITY           SKY/WX    TMP DP  RH WIND       PRES   REMARKS
Baker          FAIR      21  15  78 E8        30.00F WCI  11
Big Timber     CLEAR     41  16  36 W10       29.96F
Billings       FAIR      39  17  41 SW13      29.94F WCI  31
Forsyth          N/A     27  19  74 CALM      29.94F
Hardin         MOCLDY    27  21  80 CALM      29.94
Harlowton      MOCLDY    31  23  70 N10       29.92F WCI  23
Laurel           N/A     41  18  38 SW10G16   29.96F
Livingston     CLOUDY    49  16  26 SW24G35   29.94F
Miles City     FAIR      30  23  75 S8        29.94F WCI  22
$$

Regional Reports...Dakotas/MN

CITY           SKY/WX    TMP DP  RH WIND       PRES   REMARKS
Williston      FAIR      24  17  74 S13       29.96F WCI  12
Minot          FAIR      18   9  68 S13       30.04F WCI   5
Dickinson      FAIR      17  11  77 S18       30.02F WCI   1
Beach          FAIR      23  16  74 S16G23    30.01F WCI  10
Crosby         FAIR      23  18  80 S17G24    29.94F WCI   9
Hettinger      FAIR      14  10  84 SE16      30.07F WCI  -2
Tioga          FAIR      21  16  79 S13       29.99F WCI   9
Bismarck       FAIR       5  -1  76 SE7       30.23F WCI  -7
Grand Forks    FAIR      -3  -9  75 S21       30.35F WCI -26
Fargo          FAIR      -4  -9  79 S13       30.42F WCI -23
Buffalo SD       N/A     16   9  74 S10       30.03F WCI   4
Rapid City     FAIR      30  20  66 S14       30.11F WCI  19
Intl Falls     FAIR       2  -2  83 SW6       30.36F WCI  -9
Duluth         FAIR       8   4  83 W13       30.44F WCI  -8
Minneapolis    FAIR       4  -1  80 SW5       30.61S
$$

Regional Reports...WY/ID/WA

CITY           SKY/WX    TMP DP  RH WIND       PRES   REMARKS
Buffalo WY     FAIR      37  15  40 E6        29.94F
Cody           FAIR      28  17  63 CALM      30.02F
Gillette       FAIR      38  16  40 S23       30.00F WCI  27
Powell         FAIR      32  12  43 SE13      30.00F WCI  22
Sheridan       FAIR      28  22  78 CALM      29.94F
Yellowstone La   N/A     13  11  92 CALM      30.15S
Boise          FAIR      34  27  75 E5        30.03F
Couer d`Alene  FOG       32  31  96 E6        29.95F VSB 1/4 WCI  26
Idaho Falls    FAIR      25  19  78 N5        30.08F
Salmon         CLOUDY    19  14  81 CALM      30.09F
Spokane        CLOUDY    34  30  85 E7        29.93F WCI  28
Seattle        CLOUDY    51  37  58 S5        29.75F
$$

Regional Reports...Alberta

CITY           SKY/WX    TMP DP  RH WIND       PRES   REMARKS
Calgary        MOCLDY    39  23  52 VRB2      29.71F
Cardston         N/A     43  27  52 S5          N/A
Crowsnest Pass   N/A     36  25  64 W5          N/A
Del Bonita       N/A     39  25  56 SW16        N/A  WCI  30
Edmonton       MOCLDY    18  16  93 SW5       29.62R
Fort McMurray  CLOUDY    12   9  85 S5        29.54F
High Level     FLURRIES  19  18  93 S7        29.41F WCI  10
Lethbridge     CLOUDY    41  28  60 SW21      29.79F
Lloydminster   CLOUDY    21  18  86 SW9       29.58F WCI  11
Peace River    CLEAR      7   1  78 SW10      29.51F WCI  -8
Pincher Creek  CLEAR     36  23  60 MISG      29.83F
Raymond          N/A     39  27  60 SW7         N/A
Waterton Gate    N/A     37  25  60 SW20G26     N/A  WCI  27
Fort Smith NWT LGT SNOW  10   7  85 SE6       29.51F WCI   1
$$

Regional Reports...Saskatchewan

CITY           SKY/WX    TMP DP  RH WIND       PRES   REMARKS
Assiniboia       N/A     25  18  74 S6          N/A  WCI  18
Coronach         N/A     25  18  74 S12         N/A  WCI  14
Cypress Hills    N/A     36  18  48 SW8         N/A  WCI  29
Estevan        CLEAR     25  18  74 S14G20    29.93F WCI  13
La Ronge         N/A      9   7  92 E5          N/A
Moose Jaw        N/A     37  19  48 SW23G29     N/A  WCI  26
Prince Albert  MOCLDY     9   5  85 E6        29.72F WCI  -1
Regina         CLOUDY    19  14  79 SE16      29.84F WCI   5
Rockglen         N/A     30  21  69 SW18        N/A  WCI  18
Saskatoon      CLOUDY    27  19  74 S14       29.69F WCI  15
Swift Current  PTCLDY    34  23  64 SW20      29.74F WCI  22
Uranium City     N/A     10   9  92 E5          N/A
Val Marie        N/A      7   3  85 N1          N/A
$$




USA.gov is the U.S. government's official web portal to all federal, state and local government web resources and services.